Weather History for Page, AZ

Change the Weather History Date:

Wednesday, February 19, 2014

  Actual Average Record
Temperature  
Mean Temperature 56 °F -  
Max Temperature 69 °F 52 °F 69 °F (2014)
Min Temperature 43 °F 32 °F 22 °F (1975)
Degree Days  
Heating Degree Days 8    
Growing Degree Days 6 (Base 50)    
Moisture  
Dew Point 11 °F    
Average Humidity 18    
Maximum Humidity 32    
Minimum Humidity 4    
Precipitation  
Precipitation 0.00 in - - ()
Sea Level Pressure  
Sea Level Pressure 29.75 in    
Wind  
Wind Speed 9 mph (WNW)    
Max Wind Speed 30 mph    
Max Gust Speed 48 mph    
Visibility 9 miles    
Events Rain    
Averages and records for this station are not official NWS values.
T = Trace of Precipitation, MM = Missing Value Source: NWS Daily Summary

Daily Weather History Graph

Daily Weather History Graph

Search for Another Location

Airport:

Trip Planner

Search our weather history database for the weather conditions in past years. The results will help you decide how hot, cold, wet, or windy it might be!

Date:

Astronomy

Feb. 19, 2014 Rise Set
Actual Time 7:09 AM MST 6:10 PM MST
Civil Twilight 6:43 AM MST 6:36 PM MST
Nautical Twilight 6:12 AM MST 7:06 PM MST
Astronomical Twilight 5:42 AM MST 7:36 PM MST
Moon 10:58 PM MST (2/19) 9:25 AM MST (2/19)
Length of Visible Light 11h 53m
Length of Day
11h 00m
Waning Gibbous, 79% of the Moon is Illuminated
Feb 19
Waning Gibbous
Feb 22
Last Quarter
Mar 1
New
Mar 8
First Quarter
Mar 16
Full

Hourly Weather History & Observations

Time (MST) Temp. Windchill Dew Point Humidity Pressure Visibility Wind Dir Wind Speed Gust Speed Precip Events Conditions
12:53 AM 50.0 °F - 14.0 °F 24% 29.87 in 10.0 mi ESE 4.6 mph - N/A   Clear
1:53 AM 50.0 °F - 12.9 °F 23% 29.85 in 10.0 mi ESE 5.8 mph - N/A   Clear
2:53 AM 48.9 °F - 12.9 °F 24% 29.83 in 10.0 mi SSE 6.9 mph - N/A   Clear
3:53 AM 46.9 °F - 12.9 °F 25% 29.81 in 10.0 mi SSE 5.8 mph - N/A   Clear
4:53 AM 48.0 °F - 12.0 °F 24% 29.80 in 10.0 mi SE 4.6 mph - N/A   Clear
5:53 AM 46.0 °F 43.9 °F 12.0 °F 25% 29.81 in 10.0 mi SE 4.6 mph - N/A   Clear
6:53 AM 48.9 °F - 10.9 °F 22% 29.80 in 10.0 mi SSE 4.6 mph - N/A   Clear
7:53 AM 46.0 °F 44.8 °F 10.9 °F 24% 29.81 in 10.0 mi ESE 3.5 mph - N/A   Clear
8:53 AM 50.0 °F - 10.9 °F 21% 29.80 in 10.0 mi East 3.5 mph - N/A   Clear
9:53 AM 52.0 °F - 15.1 °F 23% 29.78 in 10.0 mi North 3.5 mph - N/A   Clear
10:53 AM 55.0 °F - 14.0 °F 20% 29.72 in 10.0 mi Calm Calm - N/A   Clear
11:53 AM 57.9 °F - 12.0 °F 16% 29.66 in 10.0 mi North 4.6 mph - N/A   Clear
12:53 PM 61.0 °F - 16.0 °F 17% 29.60 in 10.0 mi NNW 9.2 mph - N/A   Clear
1:53 PM 64.0 °F - 12.9 °F 14% 29.55 in 10.0 mi Variable 4.6 mph - N/A   Partly Cloudy
2:11 PM 69.1 °F - 3.9 °F 8% 29.65 in 2.5 mi West 29.9 mph 48.3 mph N/A   Haze
2:20 PM 68.0 °F - 5.0 °F 8% 29.65 in 2.5 mi West 27.6 mph 46.0 mph 0.00 in Rain Light Rain
2:27 PM 68.0 °F - 6.1 °F 9% 29.66 in 4.0 mi West 28.8 mph 46.0 mph 0.00 in   Haze
2:53 PM 66.9 °F - 5.0 °F 9% 29.55 in 6.0 mi West 21.9 mph 43.7 mph 0.00 in   Haze
3:53 PM 66.0 °F - 9.0 °F 11% 29.58 in 8.0 mi WNW 18.4 mph 44.9 mph N/A   Clear
4:53 PM 63.0 °F - 5.0 °F 10% 29.59 in 9.0 mi WNW 18.4 mph 44.9 mph N/A   Clear
5:53 PM 60.1 °F - 3.0 °F 10% 29.65 in 10.0 mi WNW 18.4 mph 32.2 mph N/A   Clear
6:53 PM 57.0 °F - 10.9 °F 16% 29.72 in 10.0 mi NW 15.0 mph 25.3 mph N/A   Clear
7:53 PM 52.0 °F - 18.0 °F 26% 29.79 in 10.0 mi NW 16.1 mph 25.3 mph N/A   Clear
8:53 PM 50.0 °F - 18.0 °F 28% 29.84 in 10.0 mi NW 16.1 mph 26.5 mph N/A   Clear
9:53 PM 46.9 °F - 18.0 °F 32% 29.90 in 10.0 mi NNW 16.1 mph 27.6 mph N/A   Clear
10:53 PM 45.0 °F 38.2 °F 14.0 °F 29% 29.92 in 10.0 mi NW 15.0 mph - N/A   Clear
11:53 PM 43.0 °F 37.7 °F 12.9 °F 30% 29.96 in 10.0 mi NW 9.2 mph - N/A   Clear